Le nostre stazioni meteo in Italia

Pubblicità
Il mio iltempo24.it
Salsburgh, Gran Bretagna (99024): Temperatura & dewpoint: 14.02.2017 15:00:00 - 20.02.2017 15:00:00 (GMT)Salsburgh, Gran Bretagna (99024): velocità del vento & gusts: 14.02.2017 15:00:00 - 20.02.2017 15:00:00 (GMT)Salsburgh, Gran Bretagna (99024): direzione del vento: 14.02.2017 15:00:00 - 20.02.2017 15:00:00 (GMT)Salsburgh, Gran Bretagna (99024): precipitazioni: 14.02.2017 15:00:00 - 20.02.2017 15:00:00 (GMT)
Data & Tempo tt [°C] td [°C] ff [km/h] ff [kn] fx [km/h] fx [kn] dd rr [mm]
20.02.2017 15:00:00 8,2 4,5 48 26 70 38 O 0,0
20.02.2017 14:00:00 8,8 6,4 42 23 61 33 O 0,2
20.02.2017 13:00:00 9,4 7,7 41 22 70 38 O 0,0
20.02.2017 12:00:00 9,4 9,0 44 24 70 38 O 0,0
20.02.2017 11:00:00 9,1 9,1 48 26 74 40 O 0,0
20.02.2017 10:00:00 9,0 9,0 55 30 76 41 O 0,2
20.02.2017 09:00:00 9,0 9,0 54 29 76 41 O 0,4
20.02.2017 08:00:00 9,5 9,5 44 24 67 36 OSO 0,4
20.02.2017 07:00:00 9,3 9,3 29 16 52 28 SO 0,0
20.02.2017 06:00:00 9,1 9,1 35 19 55 30 SO 0,0
20.02.2017 05:00:00 8,1 8,1 35 19 48 26 SO 0,4
20.02.2017 04:00:00 7,9 7,9 35 19 63 34 OSO 0,0
20.02.2017 03:00:00 7,7 7,7 42 23 55 30 OSO 0,0
20.02.2017 02:00:00 8,1 8,1 35 19 57 31 O 0,0
20.02.2017 01:00:00 8,3 8,3 37 20 55 30 OSO 0,0
20.02.2017 00:00:00 8,6 8,6 35 19 48 26 OSO 0,2
19.02.2017 23:00:00 8,7 8,7 34 18 54 29 OSO 0,0
19.02.2017 22:00:00 8,7 8,7 37 20 55 30 OSO 0,0
19.02.2017 21:00:00 8,7 8,7 39 21 52 28 OSO 0,4
19.02.2017 20:00:00 8,7 8,7 29 16 48 26 OSO 0,0
19.02.2017 19:00:00 8,4 8,4 31 17 46 25 SO 0,2
19.02.2017 18:00:00 8,1 8,1 24 13 - - SO 0,0
19.02.2017 17:00:00 8,0 8,0 31 17 46 25 OSO 0,0
19.02.2017 16:00:00 8,0 7,8 31 17 - - SO 0,0
19.02.2017 15:00:00 8,2 7,7 28 15 - - OSO 0,0
19.02.2017 14:00:00 8,2 7,6 34 18 - - OSO 0,0
19.02.2017 13:00:00 8,1 7,8 26 14 - - OSO 0,0
19.02.2017 12:00:00 7,8 7,7 22 12 - - SO 0,0
19.02.2017 11:00:00 7,0 7,0 22 12 - - OSO 0,0
19.02.2017 10:00:00 6,6 6,6 22 12 - - OSO 0,0
19.02.2017 09:00:00 6,6 6,6 22 12 - - O 0,0
19.02.2017 08:00:00 6,5 6,5 26 14 - - O 0,0
19.02.2017 07:00:00 6,6 6,6 24 13 - - O 0,0
19.02.2017 06:00:00 6,6 6,6 28 15 50 27 O 0,2
19.02.2017 05:00:00 6,7 6,5 34 18 50 27 O 0,0
19.02.2017 04:00:00 6,6 6,5 35 19 48 26 O 0,0
19.02.2017 03:00:00 6,2 6,2 28 15 54 29 OSO 0,2
19.02.2017 02:00:00 6,1 5,8 34 18 46 25 OSO 0,0
19.02.2017 01:00:00 6,0 5,4 31 17 46 25 OSO 0,0
19.02.2017 00:00:00 6,1 5,3 31 17 52 28 OSO 0,0
18.02.2017 23:00:00 6,0 5,2 31 17 52 28 OSO 0,0
18.02.2017 22:00:00 6,1 5,1 37 20 55 30 OSO 0,0
18.02.2017 21:00:00 6,2 5,1 35 19 59 32 OSO 0,0
18.02.2017 20:00:00 6,3 5,6 39 21 61 33 OSO 0,4
18.02.2017 19:00:00 6,9 6,1 34 18 59 32 OSO 0,0
18.02.2017 18:00:00 7,0 6,3 35 19 46 25 OSO 0,0
18.02.2017 17:00:00 7,2 6,7 29 16 55 30 OSO 0,4
18.02.2017 16:00:00 8,7 7,5 35 19 59 32 OSO 0,0
18.02.2017 15:00:00 8,8 7,6 37 20 55 30 OSO 0,0
18.02.2017 14:00:00 8,8 8,1 29 16 - - SO 0,0
18.02.2017 13:00:00 8,1 8,1 26 14 - - SSO 0,2
18.02.2017 12:00:00 8,3 8,2 28 15 - - SSO 0,0
18.02.2017 11:00:00 8,5 8,1 29 16 48 26 SO 0,0
18.02.2017 10:00:00 8,1 7,8 31 17 48 26 SSO 0,0
18.02.2017 09:00:00 7,9 7,7 34 18 50 27 SSO 0,0
18.02.2017 08:00:00 7,9 7,4 35 19 46 25 SSO 0,0
18.02.2017 07:00:00 7,2 6,8 35 19 52 28 S 0,0
18.02.2017 06:00:00 7,4 7,1 31 17 46 25 S 0,0
18.02.2017 05:00:00 7,8 6,9 34 18 46 25 SSO 0,0
18.02.2017 04:00:00 7,5 7,0 26 14 - - SSO 0,0
18.02.2017 03:00:00 7,3 7,1 31 17 52 28 S 0,0
18.02.2017 02:00:00 7,2 6,9 34 18 - - S 0,0
18.02.2017 01:00:00 7,1 6,9 28 15 - - S 0,0
18.02.2017 00:00:00 7,2 6,9 28 15 - - S 0,0
17.02.2017 23:00:00 7,0 6,9 29 16 - - S 0,0
17.02.2017 22:00:00 6,8 6,6 29 16 - - S 0,4
17.02.2017 21:00:00 6,8 6,3 28 15 - - S 0,0
17.02.2017 20:00:00 7,0 6,3 28 15 - - S 0,0
17.02.2017 19:00:00 6,9 6,6 24 13 - - S 0,0
17.02.2017 18:00:00 6,9 6,4 24 13 - - S 0,0
17.02.2017 17:00:00 6,9 6,1 22 12 - - S 0,0
17.02.2017 16:00:00 7,3 6,2 21 11 - - S 0,0
17.02.2017 15:00:00 7,7 6,6 18 10 - - S 0,0
17.02.2017 14:00:00 7,6 6,7 24 13 - - S 0,0
17.02.2017 13:00:00 7,7 6,9 24 13 - - S 0,0
17.02.2017 12:00:00 7,0 6,4 18 10 - - S 0,0
17.02.2017 11:00:00 6,5 5,9 16 9 - - S 0,0
17.02.2017 10:00:00 5,0 4,8 15 8 - - S 0,0
17.02.2017 09:00:00 3,4 3,4 16 9 - - SSE 0,0
17.02.2017 08:00:00 1,2 1,2 13 7 - - SE 0,0
17.02.2017 07:00:00 2,2 2,1 13 7 - - S 0,0
17.02.2017 06:00:00 2,5 2,4 13 7 - - S 0,0
17.02.2017 05:00:00 2,4 2,4 13 7 - - S 0,0
17.02.2017 04:00:00 2,0 2,0 11 6 - - SSE 0,0
17.02.2017 03:00:00 2,7 2,7 8 4 - - S 0,0
17.02.2017 02:00:00 2,4 2,3 9 5 - - S 0,0
17.02.2017 01:00:00 2,9 2,7 11 6 - - S 0,0
17.02.2017 00:00:00 4,3 4,2 11 6 - - SSO 0,0
16.02.2017 23:00:00 4,5 4,3 11 6 - - SSO 0,0
16.02.2017 22:00:00 4,7 4,3 15 8 - - OSO 0,0
16.02.2017 21:00:00 5,5 4,9 15 8 - - SO 0,0
16.02.2017 20:00:00 6,2 5,1 22 12 - - OSO 0,0
16.02.2017 19:00:00 6,6 5,4 21 11 - - OSO 0,0
16.02.2017 18:00:00 6,9 5,2 22 12 - - OSO 0,0
16.02.2017 17:00:00 7,2 5,5 31 17 46 25 O 0,0
16.02.2017 16:00:00 7,3 5,7 34 18 55 30 O 0,0
16.02.2017 15:00:00 7,0 5,8 31 17 - - OSO 0,0
16.02.2017 14:00:00 6,6 5,8 29 16 50 27 OSO 0,2
16.02.2017 13:00:00 6,3 5,5 37 20 54 29 OSO 0,0
16.02.2017 12:00:00 6,1 5,6 35 19 54 29 OSO 1,0
16.02.2017 11:00:00 5,9 5,3 42 23 54 29 SO 0,6
16.02.2017 10:00:00 5,3 4,7 34 18 52 28 SO 0,2
16.02.2017 09:00:00 5,0 4,0 35 19 52 28 SO 0,0
16.02.2017 08:00:00 4,9 3,7 26 14 46 25 SO 0,0
16.02.2017 07:00:00 5,4 4,3 34 18 54 29 SO 0,0
16.02.2017 06:00:00 5,7 4,8 37 20 54 29 OSO 0,0
16.02.2017 05:00:00 5,7 5,3 37 20 54 29 SO 0,0
16.02.2017 04:00:00 5,8 5,4 35 19 55 30 SO 0,4
16.02.2017 03:00:00 6,1 5,8 31 17 46 25 SO 1,0
16.02.2017 02:00:00 6,7 6,1 34 18 50 27 SO 0,0
16.02.2017 01:00:00 6,9 6,6 35 19 46 25 SO 0,0
16.02.2017 00:00:00 6,7 6,5 29 16 - - SO 0,2
15.02.2017 23:00:00 6,5 6,2 26 14 - - SSO 0,2
15.02.2017 22:00:00 6,7 5,6 28 15 - - S 0,0
15.02.2017 21:00:00 6,0 5,6 26 14 - - S 0,0
15.02.2017 20:00:00 6,4 6,0 26 14 - - S 0,0
15.02.2017 19:00:00 6,5 6,1 29 16 - - S 0,2
15.02.2017 18:00:00 6,9 6,0 26 14 - - S 0,0
15.02.2017 17:00:00 7,2 6,2 28 15 52 28 S 0,0
15.02.2017 16:00:00 8,4 5,8 31 17 - - S 0,0
15.02.2017 15:00:00 8,6 5,1 21 11 - - S 0,0
15.02.2017 14:00:00 7,8 5,5 8 4 - - S 0,0
15.02.2017 13:00:00 8,2 5,9 9 5 - - SSE 0,0
15.02.2017 12:00:00 7,6 5,6 8 4 - - ESE 0,0
15.02.2017 11:00:00 7,4 6,1 18 10 - - SSE 0,0
15.02.2017 10:00:00 6,5 6,5 11 6 - - SSE 0,0
15.02.2017 09:00:00 5,5 5,4 8 4 - - ESE 0,0
15.02.2017 08:00:00 5,3 5,2 16 9 - - S 0,0
15.02.2017 07:00:00 5,1 5,0 15 8 - - S 0,0
15.02.2017 06:00:00 5,1 5,0 15 8 - - S 0,0
15.02.2017 05:00:00 5,0 4,8 16 9 - - SSE 0,0
15.02.2017 04:00:00 5,0 4,7 8 4 - - S 0,0
15.02.2017 03:00:00 4,8 4,4 13 7 - - S 0,0
15.02.2017 02:00:00 3,9 3,4 9 5 - - SE 0,6
15.02.2017 01:00:00 3,3 2,4 9 5 - - E 0,0
15.02.2017 00:00:00 3,2 2,4 11 6 - - ENE 0,0
14.02.2017 23:00:00 3,3 2,4 11 6 - - ENE 0,0
14.02.2017 22:00:00 3,5 2,3 13 7 - - E 0,0
14.02.2017 21:00:00 3,5 2,3 15 8 - - E 0,0
14.02.2017 20:00:00 3,3 2,3 18 10 - - E 0,0
14.02.2017 19:00:00 3,5 2,0 16 9 - - ENE 0,0
14.02.2017 18:00:00 3,3 1,8 18 10 - - ENE 0,0
14.02.2017 17:00:00 4,3 1,7 16 9 - - ENE 0,0
14.02.2017 16:00:00 6,2 2,1 18 10 - - E 0,0
14.02.2017 15:00:00 6,8 2,6 22 12 - - E 0,0

tt = Temperatura
td = dewpoint
ff = velocità del vento
fx = gusts
dd = direzione del vento
rr = precipitazioni

Stazioni seguenti

WeatherPro
AMSI
MeteoEarth